DECAYED
Showing default

FLOCK 1C 5, 40038 (Decayed)

Orbit data source: Space-Track

FLOCK 1C 5, 40038 was a payload satellite owned by Planet Labs (US) in LEO that was launched on Thu, 19 Jun 2014 UTC via a DNEPR launch vehicle from the Orenburg, Russia (OREN). Payload-class satellites include a variety of spacecraft equipped with specific instruments for various scientific and technological missions. These include communications satellites like Starlink; space stations such as the ISS; scientific satellites like the Hubble; Earth observation satellites from companies like Planet Labs, Umbra, and HawkEye 360; GPS; miniature CubeSats for education and research; and military/defense satellites.

Not visible in the next 10 days
Identifier
40038, 2014-033AE
Orbit
Decayed
Country
Flag of USUS
Related business
Manufacturer
Planet Labs
Mission
Decayed Commercial Imaging
Bus & Motor
CUBESAT 3U, Unknown motor
Mass
4.25 kg wet, 4.25 kg dry
Launch date (UTC)
2014-06-19 (11 years ago)
Launch vehicle
DNEPR
Launch site
Orenburg, Russia (OREN)
Object type
Payload
Rocket body
Debris
Shape & HBR
Box + 2 Pan, 0.1 m
Radar Cross Section
0.108 m², Small (<0.1 m²)

Expand to show TLE details & history
Last TLE update: 6 months ago

TLE from 6 months ago
0 FLOCK 1C 5
1 40038U 14033AE  25070.53527800  .09017069  29481-5  20523-2 0  9995
2 40038  98.0406  89.2728 0007724 205.5887 154.5023 16.30046462585230
Epoch: 2025-03-11T12:50Z
TLE epoch observation values (Epoch: 2025-03-11T12:50:48.019Z)
Latitude
-0.0001°
Longitude
87.1359°
Altitude
200.216 km
Speed
7.783 km/s
True Right ascension
05h 57m 05s
True Declination
0° 00' 00"
Sunlit
Object was in daylight at epoch
Visualization orbit readout
Latitude
Unknown
Longitude
Unknown
Altitude
Unknown
Speed
Unknown
Apparent Right ascension
Unknown
Apparent Declination
Unknown
Sunlit
N/A
Visualization observer readout
Local Sidereal Time
13:31:47
Azimuth
Unknown
Elevation
Unknown
Doppler factor
Unknown
Orbital elements
Apogee altitude
194.338 km
Perigee altitude
184.193 km
Semi-major axis
6,567.402 km
Eccentricity
0.00077
Inclination
98.0406°
RAAN
89.2728°
Arg. of periapsis
205.5887°
True anomaly
154.54037°
Mean anomaly
154.5023°
Eccentric anomaly
154.52134°
Mean motion
4.07805 °/min
Orbital period
88.28 mins
BSTAR
0.0020523
Loading maneuver chart data...
Computing Atmospheric mass density...
Loading historical data...
Loading historical data...
Loading historical data...
Loading historical data...
Loading historical data...
Loading historical data...
Loading historical data...

Documentation

Showing up to 5 results
|